{"data":{"norad_id":67574,"intl_designator":"2026-016P","name":"STARLINK-36594","alt_names":[],"object_type":"PAYLOAD","status":"ACTIVE","operator":null,"country":"US","launch_date":"2026-01-25","launch_site_code":"AFWTR","launch_vehicle":null,"mission":null,"orbit_class":"UNKNOWN","rcs_meters":null,"size_class":null,"mass_kg":null,"dimensions":null,"purposes":["comms"],"wikipedia_slug":null,"has_3d_model":false,"image_url":null,"decayed_at":null,"tle_current":{"epoch":"2026-05-25T03:11:06.112032Z","epoch_age_seconds":56944,"freshness":"FRESH","line1":"1 67574U 26016P   26145.13270963  .00011707  00000+0  36434-3 0  9991","line2":"2 67574  97.2853 205.5319 0000265 342.4735  17.6498 15.33448269 18583","mean_motion":15.33448269,"eccentricity":2.65e-5,"inclination_deg":97.2853,"raan_deg":205.5319,"arg_perigee_deg":342.4735,"mean_anomaly_deg":17.6498,"bstar":0.00036434,"rev_number":1858,"period_min":93.906004467895,"perigee_km":465.35209098447,"apogee_km":465.71480551823,"semimajor_km":6843.6704482513,"source":"CELESTRAK","updated_at":"2026-05-25T13:38:21.615845Z"}}}